Location: Torrington
(42.0650°N, 104.1810°W)
Time: 00:48:23
(UTC-07:00)

Amateur Radio Satellites - All Passes

Search period start: 21 November 2017 00:18
Search period end: 22 November 2017 00:18
Location: Torrington, 42.0650°N, 104.1810°W

Satellite Date Start Highest point End Downlink Frequencies (MHz)
Time Altitude Azimuth
UKube-1 21 Nov 00:29:59 00:33:50 33° 69° (ENE) 00:37:44 .
VELOX 1 21 Nov 00:36:56 00:40:50 30° 263° (W) 00:44:47 145.980
ISS 21 Nov 00:58:21 01:00:36 17° 9° (N) 01:02:50 437.550
DUCHIFAT 1 21 Nov 00:58:48 01:02:23 29° 291° (WNW) 01:05:58 145.980
50 SAT 21 Nov 01:02:07 01:05:15 47° 260° (W) 01:08:25 437.505
EO-79 21 Nov 01:06:14 01:09:15 20° 294° (WNW) 01:12:16 145.935-145.965
NANOSAT C BR1 21 Nov 01:09:38 01:12:42 20° 294° (WNW) 01:15:45 145.865
BEESAT 21 Nov 01:19:03 01:22:13 18° 63° (ENE) 01:25:24 436.000
POLYITAN 1 21 Nov 01:22:11 01:24:21 14° 297° (WNW) 01:26:31 437.675
DX 1 21 Nov 01:22:59 01:27:06 40° 261° (W) 01:31:15 434.975-435.025
ITUPSAT 1 21 Nov 01:28:04 01:31:39 21° 64° (ENE) 01:35:14 437.325
Oscar 19 21 Nov 01:30:34 01:35:44 72° 102° (ESE) 01:40:54 437.125/150
RS-15 21 Nov 01:31:00 01:41:46 35° 31° (NNE) 01:51:59 29.354- 29.394
M-CUBED/EXP-1 PRIME 21 Nov 01:34:05 01:35:36 11° 95° (E) 01:37:07 437.505
PCSat 21 Nov 01:39:00 01:43:28 25° 313° (NW) 01:47:57 145.827
MOZHAYETS 4 21 Nov 01:42:21 01:46:29 35° 69° (ENE) 01:50:37
nSIGHT-1 21 Nov 01:51:24 01:54:14 28° 23° (NNE) 01:57:03 .
BUGSAT 1 21 Nov 01:52:29 01:55:58 28° 291° (WNW) 01:59:25 437.445
Gurwin Techsat 1B 21 Nov 01:53:39 01:59:02 82° 107° (ESE) 02:04:20 435.225
CUBESAT XI-V 21 Nov 01:55:59 01:57:41 12° 60° (ENE) 01:59:23 437.345
UKube-1 21 Nov 02:06:30 02:09:54 22° 265° (W) 02:13:19 .
AO-7 21 Nov 02:10:00 02:16:01 21° 92° (E) 02:21:59 .
BEESAT 2 21 Nov 02:18:49 02:20:41 13° 109° (ESE) 02:22:32 435.950
ISS 21 Nov 02:34:30 02:37:40 46° 29° (NNE) 02:40:49 437.550
BEESAT 3 21 Nov 02:42:52 02:46:51 86° 122° (ESE) 02:50:52 437.485
BEESAT 21 Nov 02:54:54 02:59:34 53° 259° (W) 03:04:15 436.000
ITUPSAT 1 21 Nov 03:04:37 03:09:10 44° 261° (W) 03:13:45 437.325
M-CUBED/EXP-1 PRIME 21 Nov 03:05:49 03:10:23 78° 289° (WNW) 03:15:01 437.505
AO-85 21 Nov 03:05:57 03:08:10 15° 110° (ESE) 03:10:25 145.980
Oscar 19 21 Nov 03:11:27 03:14:27 16° 300° (WNW) 03:17:27 437.125/150
MOZHAYETS 4 21 Nov 03:20:03 03:23:41 23° 266° (W) 03:27:20
ITAMSAT 1 21 Nov 03:22:39 03:27:41 47° 100° (E) 03:32:39 435.822/435.867
nSIGHT-1 21 Nov 03:27:30 03:30:34 45° 220° (SW) 03:33:37 .
CUBESAT XI-V 21 Nov 03:29:48 03:34:23 79° 259° (WSW) 03:39:01 437.345
Gurwin Techsat 1B 21 Nov 03:35:28 03:38:15 14° 301° (WNW) 03:41:00 435.225
KKS-1 21 Nov 03:35:49 03:39:43 30° 68° (ENE) 03:43:36 437.445
RS-15 21 Nov 03:43:57 03:55:54 88° 236° (WSW) 04:07:08 29.354- 29.394
BEESAT 2 21 Nov 03:53:56 03:57:53 59° 306° (NW) 04:01:55 435.950
STARS 21 Nov 04:00:59 04:04:26 22° 66° (ENE) 04:07:53 437.465
AO-7 21 Nov 04:01:15 04:09:37 82° 290° (WNW) 04:17:59 .
DOVE 4 21 Nov 04:05:25 04:09:31 23° 92° (E) 04:13:26 437.250
ISS 21 Nov 04:11:23 04:13:57 22° 226° (SW) 04:16:32 437.550
YUBILEINY 21 Nov 04:22:46 04:30:10 32° 83° (E) 04:37:36 435.215
BEESAT 3 21 Nov 04:23:02 04:24:57 13° 321° (NW) 04:26:52 437.485
SO-50 21 Nov 04:38:31 04:40:53 14° 36° (NE) 04:43:16 436.795
M-CUBED/EXP-1 PRIME 21 Nov 04:43:18 04:44:01 10° 305° (NW) 04:44:44 437.505
AO-85 21 Nov 04:44:20 04:48:05 47° 308° (NW) 04:52:02 145.980
LilacSat-2 21 Nov 04:53:28 04:54:42 11° 90° (E) 04:55:56 437.200
CUTE-I 21 Nov 04:55:53 04:58:02 12° 89° (E) 05:00:10 437.470
XW-2F 21 Nov 05:02:06 05:03:42 12° 91° (E) 05:05:18 145.980 - 146.000
ITAMSAT 1 21 Nov 05:02:46 05:06:49 23° 297° (WNW) 05:10:50 435.822/435.867
KKS-1 21 Nov 05:12:26 05:16:13 27° 264° (W) 05:20:02 437.445
KAITUO 1B 21 Nov 05:29:05 05:31:55 20° 94° (E) 05:34:46 145.475/437.950
STARS 21 Nov 05:36:28 05:40:33 35° 262° (W) 05:44:39 437.465
FO-29 21 Nov 05:39:30 05:42:14 13° 49° (NE) 05:45:02 435.910
DOVE 4 21 Nov 05:42:26 05:47:20 43° 290° (WNW) 05:52:01 437.250
XW-2D 21 Nov 05:43:11 05:46:51 43° 99° (E) 05:50:29 145.860 - 145.880
AO-7 21 Nov 05:55:33 06:01:11 21° 310° (NW) 06:06:50 .
XW-2B 21 Nov 05:57:55 06:01:42 64° 100° (E) 06:05:29 145.730 - 145.750
RS-15 21 Nov 05:58:23 06:06:31 23° 261° (W) 06:14:24 29.354- 29.394
STRAND 1 21 Nov 05:59:39 06:04:28 43° 70° (ENE) 06:09:20 437.568
HO-68 21 Nov 06:03:39 06:09:30 26° 94° (E) 06:15:18 435.675
NUDT-PHONESAT 21 Nov 06:13:09 06:16:51 68° 101° (E) 06:20:33 437.300
SO-50 21 Nov 06:17:28 06:22:07 76° 55° (NE) 06:26:49 436.795
YUBILEINY 21 Nov 06:17:55 06:26:28 57° 283° (WNW) 06:35:08 435.215
XW-2C 21 Nov 06:23:34 06:27:18 58° 286° (WNW) 06:31:04 145.795 - 145.815
LilacSat-2 21 Nov 06:25:31 06:29:15 51° 286° (WNW) 06:32:59 437.200
CUTE 1.7 + AOD 2 21 Nov 06:26:35 06:30:25 31° 96° (E) 06:34:14 437.475
CUTE-I 21 Nov 06:33:19 06:38:43 83° 285° (WNW) 06:44:04 437.470
XW-2F 21 Nov 06:34:24 06:38:02 46° 287° (WNW) 06:41:40 145.980 - 146.000
UWE-3 21 Nov 06:44:09 06:46:35 15° 91° (E) 06:49:00 435.000/436.395/437.385
SEEDS 21 Nov 06:56:58 07:01:01 41° 98° (E) 07:05:02 437.485
PCSat 21 Nov 07:01:17 07:02:19 10° 33° (NNE) 07:03:22 145.827
KAITUO 1B 21 Nov 07:02:40 07:05:53 27° 290° (WNW) 07:09:06 145.475/437.950
AAUSAT CUBESAT 2 21 Nov 07:04:21 07:07:37 21° 94° (E) 07:10:50 437.432
XW-2D 21 Nov 07:18:36 07:20:38 14° 295° (WNW) 07:22:40 145.860 - 145.880
FO-29 21 Nov 07:19:04 07:25:34 60° 70° (ENE) 07:32:52 435.910
CUBEBUG 2 21 Nov 07:22:22 07:26:33 76° 102° (ESE) 07:30:40 437.445
AO-73 21 Nov 07:25:00 07:28:04 20° 94° (E) 07:31:08 145.935
UNISAT 6 21 Nov 07:27:17 07:28:17 11° 61° (ENE) 07:29:15 437.425
TIGRISAT 21 Nov 07:31:31 07:32:36 11° 61° (ENE) 07:33:41 435.000
XW-2B 21 Nov 07:34:59 07:35:20 10° 297° (WNW) 07:35:40 145.730 - 145.750
XW-2A 21 Nov 07:35:24 07:38:42 54° 100° (E) 07:42:01 145.665 - 145.685
STRAND 1 21 Nov 07:39:42 07:43:48 24° 266° (W) 07:47:55 437.568
Oscar 11 21 Nov 07:41:20 07:44:38 21° 94° (E) 07:47:56 .
HO-68 21 Nov 07:50:35 07:57:38 61° 291° (WNW) 08:04:39 435.675
SO-50 21 Nov 07:59:54 08:01:59 13° 252° (WSW) 08:04:05 436.795
CUTE 1.7 + AOD 2 21 Nov 08:02:41 08:06:05 23° 292° (WNW) 08:09:27 437.475
ZACube-1 21 Nov 08:09:18 08:13:27 73° 102° (ESE) 08:17:37 437.345
CUTE-I 21 Nov 08:15:51 08:17:54 12° 303° (WNW) 08:19:56 437.470
UWE-3 21 Nov 08:19:20 08:23:16 43° 288° (WNW) 08:27:12 435.000/436.395/437.385
YUBILEINY 21 Nov 08:23:26 08:25:36 11° 307° (NW) 08:27:47 435.215
PRISM 21 Nov 08:24:25 08:26:35 14° 63° (ENE) 08:28:45 437.425
SEEDS 21 Nov 08:33:29 08:36:22 18° 294° (WNW) 08:39:16 437.485
AAUSAT CUBESAT 2 21 Nov 08:39:21 08:43:05 32° 290° (WNW) 08:46:48 437.432
Max Valier Satellite 21 Nov 08:41:27 08:42:44 11° 91° (E) 08:44:01 145.860
PCSat 21 Nov 08:41:51 08:47:07 48° 54° (NE) 08:52:19 145.827
UNISAT 6 21 Nov 08:59:43 09:04:18 86° 254° (WSW) 09:08:49 437.425
AO-73 21 Nov 09:00:39 09:04:23 33° 289° (WNW) 09:08:07 145.935
CUBEBUG 2 21 Nov 09:02:17 09:02:31 10° 299° (WNW) 09:02:45 437.445
TIGRISAT 21 Nov 09:04:03 09:08:39 84° 260° (W) 09:13:09 435.000
FALCONSAT 3 21 Nov 09:05:02 09:06:45 13° 157° (SSE) 09:08:27 435.103
FO-29 21 Nov 09:05:41 09:11:06 26° 270° (W) 09:17:04 435.910
DELFI C3 21 Nov 09:08:59 09:12:45 39° 98° (E) 09:16:29 145.870
Oscar 11 21 Nov 09:16:55 09:20:50 34° 290° (WNW) 09:24:46 .
HO-68 21 Nov 09:41:10 09:43:55 13° 311° (NW) 09:46:40 435.675
ZACube-1 21 Nov 09:48:26 09:49:08 10° 298° (WNW) 09:49:51 437.345
PRISM 21 Nov 09:57:21 10:01:22 53° 259° (W) 10:05:27 437.425
EO-88 21 Nov 10:11:09 10:14:49 72° 284° (WNW) 10:18:26 145.990 - 145.960
Max Valier Satellite 21 Nov 10:13:16 10:16:47 45° 286° (WNW) 10:20:18 145.860
DUCHIFAT 1 21 Nov 10:15:43 10:18:44 19° 66° (ENE) 10:21:45 145.980
AIST 2D 21 Nov 10:15:58 10:19:23 69° 76° (ENE) 10:22:50 435.315
EO-79 21 Nov 10:22:29 10:26:09 29° 69° (ENE) 10:29:50 145.935-145.965
NANOSAT C BR1 21 Nov 10:25:41 10:29:17 28° 69° (ENE) 10:32:54 145.865
PCSat 21 Nov 10:25:50 10:30:12 25° 252° (WSW) 10:34:32 145.827
ESTCUBE 1 21 Nov 10:30:38 10:33:48 18° 93° (E) 10:36:56 437.505/2401.250
BEESAT 2 21 Nov 10:34:49 10:36:39 13° 38° (NE) 10:38:29 435.950
LO-87 21 Nov 10:35:31 10:38:28 24° 96° (E) 10:41:22 145.935 - 145.965
POLYITAN 1 21 Nov 10:37:27 10:41:28 42° 72° (ENE) 10:45:27 437.675
FALCONSAT 3 21 Nov 10:42:05 10:45:12 26° 172° (S) 10:48:20 435.103
DELFI C3 21 Nov 10:44:34 10:47:10 17° 294° (WNW) 10:49:46 145.870
BEESAT 3 21 Nov 10:59:04 11:02:58 54° 54° (NE) 11:06:46 437.485
QB50P2 21 Nov 11:00:30 11:04:45 87° 81° (E) 11:09:01 145.880/145.840
BUGSAT 1 21 Nov 11:07:42 11:10:34 18° 66° (ENE) 11:13:25 437.445
Oscar 19 21 Nov 11:11:33 11:14:16 15° 59° (ENE) 11:16:59 437.125/150
AO-85 21 Nov 11:34:14 11:37:54 23° 45° (NE) 11:41:46 145.980
Gurwin Techsat 1B 21 Nov 11:37:26 11:41:04 19° 61° (ENE) 11:44:42 435.225
SPROUT 21 Nov 11:45:37 11:49:15 27° 95° (E) 11:52:51 437.525
DUCHIFAT 1 21 Nov 11:50:13 11:54:07 37° 262° (W) 11:58:04 145.980
EO-79 21 Nov 11:58:26 12:01:53 24° 265° (W) 12:05:21 145.935-145.965
NANOSAT C BR1 21 Nov 12:01:27 12:04:57 25° 265° (W) 12:08:27 145.865
ESTCUBE 1 21 Nov 12:06:28 12:10:46 43° 289° (WNW) 12:15:04 437.505/2401.250
LO-87 21 Nov 12:09:05 12:11:43 20° 292° (WNW) 12:14:21 145.935 - 145.965
BEESAT 2 21 Nov 12:10:56 12:15:00 90° 187° (S) 12:18:58 435.950
POLYITAN 1 21 Nov 12:14:40 12:17:25 17° 268° (W) 12:20:10 437.675
O/OREOS (USA 219) 21 Nov 12:19:14 12:22:45 22° 102° (ESE) 12:26:16 437.305
M-CUBED/EXP-1 PRIME 21 Nov 12:20:18 12:21:48 12° 56° (NE) 12:23:21 437.505
FALCONSAT 3 21 Nov 12:20:40 12:23:49 27° 187° (S) 12:26:59 435.103
VELOX 1 21 Nov 12:25:42 12:30:02 46° 100° (E) 12:34:18 145.980
BEESAT 3 21 Nov 12:38:07 12:40:00 13° 251° (WSW) 12:41:52 437.485
BUGSAT 1 21 Nov 12:41:39 12:45:36 40° 261° (W) 12:49:33 437.445
Oscar 19 21 Nov 12:47:49 12:52:55 77° 256° (WSW) 12:58:04 437.125/150
ITAMSAT 1 21 Nov 13:06:19 13:07:29 11° 56° (NE) 13:08:39 435.822/435.867
AO-7 21 Nov 13:09:22 13:16:29 34° 57° (ENE) 13:23:38 .
DX 1 21 Nov 13:10:32 13:14:29 31° 97° (E) 13:18:22 434.975-435.025
AO-85 21 Nov 13:13:57 13:18:36 56° 241° (WSW) 13:23:33 145.980
Gurwin Techsat 1B 21 Nov 13:15:16 13:20:31 61° 259° (W) 13:25:48 435.225
SPROUT 21 Nov 13:21:30 13:25:04 26° 292° (WNW) 13:28:35 437.525
50 SAT 21 Nov 13:50:44 13:53:56 61° 286° (WNW) 13:57:05 437.505
UKube-1 21 Nov 13:51:44 13:56:00 55° 101° (E) 14:00:14 .
M-CUBED/EXP-1 PRIME 21 Nov 13:52:11 13:55:39 55° 255° (WSW) 13:59:25 437.505
O/OREOS (USA 219) 21 Nov 13:57:36 14:01:54 38° 299° (WNW) 14:06:13 437.305
FALCONSAT 3 21 Nov 14:00:23 14:02:18 14° 202° (SSW) 14:04:13 435.103
VELOX 1 21 Nov 14:03:06 14:06:05 18° 296° (WNW) 14:09:04 145.980
YUBILEINY 21 Nov 14:32:33 14:37:39 16° 58° (ENE) 14:42:43 435.215
ITAMSAT 1 21 Nov 14:40:49 14:46:02 76° 73° (ENE) 14:51:16 435.822/435.867
NO-84 21 Nov 14:46:20 14:49:56 60° 134° (SE) 14:53:49 435.350 FM
DX 1 21 Nov 14:46:57 14:50:30 24° 293° (WNW) 14:54:01 434.975-435.025
BEESAT 21 Nov 14:54:30 14:58:52 36° 98° (E) 15:03:13 436.000
AO-7 21 Nov 15:00:39 15:08:48 60° 257° (WSW) 15:17:00 .
ITUPSAT 1 21 Nov 15:04:20 15:08:53 44° 99° (E) 15:13:25 437.325
DOVE 4 21 Nov 15:10:37 15:14:42 25° 65° (ENE) 15:18:57 437.250
MOZHAYETS 4 21 Nov 15:13:11 15:17:47 77° 102° (ESE) 15:22:21
CUBESAT XI-V 21 Nov 15:26:11 15:30:04 25° 94° (E) 15:33:54 437.345
UKube-1 21 Nov 15:29:08 15:31:33 15° 297° (WNW) 15:33:57 .
RS-15 21 Nov 16:04:00 16:07:54 12° 93° (E) 16:11:48 29.354- 29.394
KAITUO 1B 21 Nov 16:11:24 16:12:08 10° 63° (ENE) 16:12:53 145.475/437.950
CUTE-I 21 Nov 16:17:07 16:21:15 23° 63° (ENE) 16:25:24 437.470
ITAMSAT 1 21 Nov 16:23:33 16:26:02 13° 270° (W) 16:28:32 435.822/435.867
NO-84 21 Nov 16:24:19 16:27:33 25° 335° (NNW) 16:31:00 435.350 FM
XW-2D 21 Nov 16:25:04 16:27:59 22° 69° (ENE) 16:30:56 145.860 - 145.880
YUBILEINY 21 Nov 16:27:15 16:36:08 76° 81° (E) 16:44:57 435.215
BEESAT 21 Nov 16:32:36 16:36:28 25° 294° (WNW) 16:40:19 436.000
HO-68 21 Nov 16:33:47 16:39:01 22° 56° (NE) 16:44:14 435.675
XW-2B 21 Nov 16:39:28 16:42:46 31° 71° (ENE) 16:46:06 145.730 - 145.750
ITUPSAT 1 21 Nov 16:42:52 16:46:23 21° 296° (WNW) 16:49:55 437.325
DOVE 4 21 Nov 16:47:20 16:52:05 42° 263° (W) 16:57:04 437.250
NUDT-PHONESAT 21 Nov 16:52:27 16:55:39 30° 71° (ENE) 16:58:53 437.300
MOZHAYETS 4 21 Nov 16:52:35 16:54:17 12° 299° (WNW) 16:55:59
KKS-1 21 Nov 17:01:56 17:06:20 54° 101° (E) 17:10:41 437.445
CUBESAT XI-V 21 Nov 17:03:13 17:07:26 34° 291° (WNW) 17:11:40 437.345
XW-2C 21 Nov 17:04:38 17:08:19 66° 75° (ENE) 17:12:03 145.795 - 145.815
LilacSat-2 21 Nov 17:07:11 17:10:55 78° 76° (ENE) 17:14:42 437.200
XW-2F 21 Nov 17:14:52 17:18:34 83° 78° (ENE) 17:22:19 145.980 - 146.000
CUTE 1.7 + AOD 2 21 Nov 17:19:48 17:23:08 23° 68° (ENE) 17:26:29 437.475
STARS 21 Nov 17:24:57 17:29:02 37° 98° (E) 17:33:06 437.465
UWE-3 21 Nov 17:41:47 17:44:16 15° 64° (ENE) 17:46:43 435.000/436.395/437.385
KAITUO 1B 21 Nov 17:42:00 17:45:36 56° 260° (W) 17:49:15 145.475/437.950
SEEDS 21 Nov 17:48:57 17:52:34 29° 69° (ENE) 17:56:12 437.485
AAUSAT CUBESAT 2 21 Nov 17:55:27 17:57:55 16° 65° (ENE) 18:00:24 437.432
CUTE-I 21 Nov 17:55:45 18:00:56 49° 260° (W) 18:06:10 437.470
XW-2D 21 Nov 17:58:57 18:02:03 24° 265° (W) 18:05:10 145.860 - 145.880
NO-84 21 Nov 18:03:58 18:06:06 14° 356° (N) 18:08:16 435.350 FM
RS-15 21 Nov 18:05:43 18:17:39 61° 113° (ESE) 18:29:34 29.354- 29.394
XW-2A 21 Nov 18:07:20 18:09:43 19° 69° (ENE) 18:12:06 145.665 - 145.685
STRAND 1 21 Nov 18:11:18 18:13:47 14° 89° (E) 18:16:16 437.568
XW-2B 21 Nov 18:14:28 18:17:00 17° 267° (W) 18:19:33 145.730 - 145.750
HO-68 21 Nov 18:18:45 18:25:57 79° 254° (WSW) 18:33:12 435.675
CUBEBUG 2 21 Nov 18:20:02 18:24:35 65° 75° (ENE) 18:29:00 437.445
AO-73 21 Nov 18:21:12 18:24:01 18° 66° (ENE) 18:26:50 145.935
YUBILEINY 21 Nov 18:25:30 18:31:56 23° 281° (W) 18:38:23 435.215
NUDT-PHONESAT 21 Nov 18:27:08 18:29:33 17° 267° (W) 18:31:59 437.300
Oscar 11 21 Nov 18:36:56 18:39:48 18° 65° (ENE) 18:42:42 .
KKS-1 21 Nov 18:39:45 18:42:26 16° 297° (WNW) 18:45:06 437.445
CUTE 1.7 + AOD 2 21 Nov 18:55:08 18:58:49 30° 264° (W) 19:02:32 437.475
STARS 21 Nov 19:01:50 19:05:07 21° 295° (WNW) 19:08:24 437.465
ZACube-1 21 Nov 19:04:59 19:09:14 58° 74° (ENE) 19:13:24 437.345
UWE-3 21 Nov 19:15:55 19:20:18 55° 260° (W) 19:24:34 435.000/436.395/437.385
ISS 21 Nov 19:17:35 19:17:54 10° 129° (SE) 19:18:12 437.550
SEEDS 21 Nov 19:24:54 19:28:14 23° 266° (W) 19:31:36 437.485
AAUSAT CUBESAT 2 21 Nov 19:29:01 19:32:58 46° 261° (W) 19:36:59 437.432
XW-2A 21 Nov 19:39:37 19:42:17 22° 265° (W) 19:44:57 145.665 - 145.685
NO-84 21 Nov 19:41:53 19:44:49 18° 17° (NNE) 19:47:47 435.350 FM
STRAND 1 21 Nov 19:48:22 19:53:29 72° 287° (WNW) 19:58:33 437.568
DELFI C3 21 Nov 19:54:40 19:57:51 24° 68° (ENE) 20:01:04 145.870
AO-73 21 Nov 19:55:52 19:59:57 42° 261° (W) 20:03:59 145.935
CUBEBUG 2 21 Nov 19:59:40 20:01:33 12° 270° (W) 20:03:25 437.445
nSIGHT-1 21 Nov 20:04:48 20:07:48 37° 138° (SE) 20:10:48 .
Oscar 11 21 Nov 20:11:32 20:15:36 43° 261° (W) 20:19:43 .
HO-68 21 Nov 20:11:35 20:14:44 13° 273° (W) 20:17:55 435.675
FO-29 21 Nov 20:12:53 20:20:36 56° 98° (E) 20:27:48 435.910
RS-15 21 Nov 20:18:46 20:30:35 49° 317° (NW) 20:42:19 29.354- 29.394
SO-50 21 Nov 20:33:09 20:36:27 21° 112° (ESE) 20:39:48 436.795
ZACube-1 21 Nov 20:44:03 20:45:51 12° 270° (W) 20:47:38 437.345
EO-88 21 Nov 20:48:40 20:52:08 46° 74° (ENE) 20:55:38 145.990 - 145.960
ISS 21 Nov 20:50:36 20:53:52 87° 145° (SE) 20:57:10 437.550
Max Valier Satellite 21 Nov 20:51:42 20:55:21 77° 76° (ENE) 20:59:00 145.860
UNISAT 6 21 Nov 20:51:53 20:54:51 18° 93° (E) 20:57:47 437.425
TIGRISAT 21 Nov 20:56:03 20:59:01 18° 93° (E) 21:01:57 435.000
LO-87 21 Nov 21:13:14 21:14:36 12° 65° (ENE) 21:15:57 145.935 - 145.965
NO-84 21 Nov 21:18:44 21:22:55 55° 36° (NE) 21:27:07 435.350 FM
DELFI C3 21 Nov 21:29:07 21:32:28 26° 265° (W) 21:35:52 145.870
ESTCUBE 1 21 Nov 21:30:47 21:33:51 18° 64° (ENE) 21:36:56 437.505/2401.250
PRISM 21 Nov 21:38:42 21:41:44 19° 94° (E) 21:44:45 437.425
nSIGHT-1 21 Nov 21:41:09 21:44:04 31° 336° (NNW) 21:46:59 .
FO-29 21 Nov 21:58:20 22:05:10 34° 298° (WNW) 22:11:44 435.910
SO-50 21 Nov 22:12:19 22:16:36 45° 309° (NW) 22:20:57 436.795
EO-88 21 Nov 22:25:05 22:26:02 11° 269° (W) 22:26:59 145.990 - 145.960
O/OREOS (USA 219) 21 Nov 22:27:44 22:32:07 44° 63° (ENE) 22:36:26 437.305
UNISAT 6 21 Nov 22:27:45 22:31:43 38° 289° (WNW) 22:35:39 437.425
ISS 21 Nov 22:28:05 22:30:41 21° 343° (NNW) 22:33:17 437.550
TIGRISAT 21 Nov 22:31:54 22:35:51 38° 289° (WNW) 22:39:46 435.000
RS-15 21 Nov 22:37:34 22:47:07 25° 349° (N) 22:56:26 29.354- 29.394
SPROUT 21 Nov 22:39:20 22:42:41 23° 67° (ENE) 22:46:02 437.525
LO-87 21 Nov 22:44:05 22:47:34 47° 261° (W) 22:51:04 145.935 - 145.965
QB50P2 21 Nov 22:46:26 22:48:31 13° 91° (E) 22:50:33 145.880/145.840
NO-84 21 Nov 22:56:38 23:00:02 23° 233° (SW) 23:03:24 435.350 FM
ESTCUBE 1 21 Nov 23:06:01 23:10:18 45° 261° (W) 23:14:37 437.505/2401.250
AIST 2D 21 Nov 23:13:04 23:16:37 82° 102° (ESE) 23:20:09 435.315
PRISM 21 Nov 23:13:17 23:17:05 35° 290° (WNW) 23:20:52 437.425
nSIGHT-1 21 Nov 23:19:03 23:21:02 15° 356° (N) 23:23:00 .
VELOX 1 21 Nov 23:22:57 23:27:09 43° 71° (ENE) 23:31:23 145.980
PCSat 21 Nov 23:23:58 23:28:57 39° 111° (ESE) 23:33:58 145.827
DUCHIFAT 1 21 Nov 23:33:27 23:37:09 30° 97° (E) 23:40:50 145.980
EO-79 21 Nov 23:41:31 23:45:37 50° 100° (E) 23:49:40 145.935-145.965
NANOSAT C BR1 21 Nov 23:44:15 23:48:17 47° 99° (E) 23:52:18 145.865
POLYITAN 1 21 Nov 23:56:59 00:01:11 76° 101° (E) 00:05:22 437.675
ISS 22 Nov 00:05:59 00:08:03 15° 3° (N) 00:10:06 437.550
DX 1 22 Nov 00:06:19 00:10:06 29° 68° (ENE) 00:13:55 434.975-435.025
O/OREOS (USA 219) 22 Nov 00:08:04 00:11:08 18° 260° (W) 00:14:10 437.305
